Date,TemperatureHighF,TemperatureAvgF,TemperatureLowF,DewpointHighF,DewpointAvgF,DewpointLowF,HumidityHigh,HumidityAvg,HumidityLow,PressureMaxIn,PressureMinIn,WindSpeedMaxMPH,WindSpeedAvgMPH,GustSpeedMaxMPH,PrecipitationSumIn
2013-1-1,50,34,30,32,27,24,98,77,38,0.00,40.00,7,2,11,0.00
2013-1-2,52,36,32,29,24,21,76,61,36,0.00,40.00,6,2,9,0.00
2013-1-3,50,40,33,36,25,17,73,57,39,0.00,40.00,10,4,22,0.00
2013-1-4,54,44,39,41,39,36,93,81,56,0.00,40.00,7,2,19,0.00
2013-1-5,45,41,37,38,36,32,98,82,65,0.00,40.00,3,0,7,0.01
2013-1-6,51,41,37,41,37,35,98,87,62,0.00,40.00,9,3,19,0.03
2013-1-7,46,42,37,46,42,36,99,99,96,0.00,40.00,13,8,25,0.37
2013-1-8,47,44,42,46,44,40,99,98,76,0.00,40.00,11,7,23,0.08
2013-1-9,47,38,31,42,36,31,99,95,74,0.00,40.00,13,3,31,0.36
2013-1-10,37,32,31,34,32,30,99,97,88,0.00,40.00,4,1,14,0.01
2013-1-11,41,31,25,32,28,21,99,90,65,0.00,40.00,4,1,12,0.15
2013-1-12,34,28,24,27,25,22,97,89,68,0.00,40.00,4,1,8,0.06
2013-1-13,28,24,22,26,23,21,97,94,88,0.00,40.00,4,0,8,0.01
2013-1-14,43,29,22,32,25,20,95,86,63,0.00,40.00,2,0,6,0.11
2013-1-15,41,34,30,35,31,26,98,89,70,0.00,40.00,5,2,11,0.02
2013-1-16,59,40,33,35,30,16,99,76,20,0.00,40.00,3,0,8,0.00
2013-1-17,66,49,42,29,23,18,48,37,22,0.00,40.00,5,2,8,0.00
2013-1-18,68,55,48,35,22,17,38,29,20,0.00,40.00,5,1,8,0.00
2013-1-19,66,54,46,36,23,14,44,30,21,0.00,40.00,4,0,8,0.00
2013-1-20,62,48,43,35,22,16,64,37,22,0.00,40.00,4,1,8,0.00
2013-1-21,60,46,42,25,17,11,43,31,19,0.00,40.00,5,2,10,0.00
2013-1-22,68,49,44,32,19,12,58,31,18,0.00,40.00,4,1,8,0.00
2013-1-23,49,40,34,38,31,23,99,72,40,0.00,40.00,5,1,9,0.27
2013-1-24,56,41,34,46,40,34,99,95,69,0.00,40.00,7,3,15,0.21
2013-1-25,47,44,36,47,44,36,99,99,99,0.00,40.00,7,4,15,0.61
2013-1-26,38,36,32,38,36,32,99,99,99,0.00,40.00,7,4,18,0.17
2013-1-27,37,34,32,37,34,32,99,99,99,0.00,40.00,6,3,14,0.31
2013-1-28,38,34,32,38,34,32,99,99,99,0.00,40.00,6,2,17,0.85
2013-1-29,42,39,37,42,39,37,99,99,99,0.00,40.00,5,2,14,0.91
2013-1-30,42,39,36,42,39,36,99,99,99,0.00,40.00,8,5,15,0.20
2013-1-31,51,43,39,46,42,39,99,95,75,0.00,40.00,2,0,6,0.06
2013-2-1,50,42,37,43,40,34,99,92,64,0.00,40.00,7,3,12,0.01
2013-2-2,55,48,43,41,33,27,85,57,43,0.00,40.00,4,1,10,0.00
2013-2-3,43,39,36,40,38,35,99,96,85,0.00,40.00,2,0,9,0.00
2013-2-4,55,42,36,41,37,35,99,84,49,0.00,40.00,5,1,10,0.00
2013-2-5,46,40,37,45,39,37,99,98,91,0.00,40.00,7,5,20,0.39
2013-2-6,47,40,36,43,38,35,99,92,74,0.00,40.00,12,5,23,0.17
2013-2-7,45,35,32,40,34,31,99,96,77,0.00,40.00,6,3,21,0.21
2013-2-8,38,33,32,36,33,32,99,98,84,0.00,40.00,1,0,9,0.08
2013-2-9,41,36,33,37,34,32,99,94,79,0.00,40.00,0,0,8,0.03
2013-2-10,40,36,34,38,36,34,99,97,91,0.00,40.00,1,0,8,0.03
2013-2-11,44,37,32,38,35,32,99,92,68,0.00,40.00,5,1,9,0.01
2013-2-12,47,41,37,47,41,37,100,99,99,0.00,40.00,6,3,11,0.07
2013-2-13,44,42,40,44,42,40,100,100,100,0.00,40.00,4,2,10,0.07
2013-2-14,55,44,38,50,42,38,100,94,59,0.00,40.00,5,1,11,0.03
2013-2-15,64,47,39,47,41,27,100,81,50,0.00,40.00,7,4,13,0.01
2013-2-16,46,40,34,46,36,24,99,88,41,0.00,40.00,7,2,14,0.07
2013-2-17,47,36,31,38,32,29,99,87,59,0.00,40.00,3,1,9,0.04
2013-2-18,41,34,30,34,31,28,99,90,71,0.00,40.00,5,3,13,0.01
2013-2-19,42,36,32,41,35,31,99,96,87,0.00,40.00,4,1,10,0.16
2013-2-20,44,36,33,40,32,26,99,87,74,0.00,40.00,6,2,12,0.18
2013-2-21,37,34,32,34,28,17,97,79,46,0.00,40.00,8,3,17,0.31
2013-2-22,38,36,33,28,23,16,82,60,48,0.00,40.00,13,8,28,0.38
2013-2-23,41,34,31,39,29,24,99,84,70,0.00,40.00,5,1,14,0.36
2013-2-24,52,37,31,38,32,24,99,81,58,0.00,40.00,7,4,14,0.01
2013-2-25,42,35,32,41,33,28,99,93,81,0.00,40.00,10,4,20,0.19
2013-2-26,47,36,31,37,30,26,99,79,58,0.00,40.00,5,2,12,0.03
2013-2-27,47,40,35,43,37,33,99,90,80,0.00,40.00,5,4,13,0.09
2013-2-28,49,45,40,43,40,34,83,81,79,0.00,40.00,10,6,20,0.60
2013-3-1,62,50,44,54,43,36,100,76,47,0.00,40.00,7,3,14,0.06
2013-3-2,50,45,38,49,42,35,99,88,78,0.00,40.00,4,1,14,0.13
2013-3-3,48,38,31,38,32,26,99,80,56,0.00,40.00,5,3,15,0.13
2013-3-4,56,42,32,36,30,21,91,65,38,0.00,40.00,5,2,11,0.00
2013-3-5,42,40,36,42,36,30,99,86,62,0.00,40.00,7,2,13,0.26
2013-3-6,40,37,32,40,31,23,99,78,68,0.00,40.00,8,4,24,0.65
2013-3-7,55,41,32,39,32,25,98,74,47,0.00,40.00,4,1,12,0.01
2013-3-8,51,40,32,41,36,30,99,86,62,0.00,40.00,4,1,12,0.01
2013-3-9,58,44,34,41,32,25,98,65,39,0.00,40.00,2,1,10,0.00
2013-3-10,60,49,39,44,37,26,89,65,37,0.00,40.00,4,0,9,0.00
2013-3-11,56,48,44,50,46,37,99,90,73,0.00,40.00,3,0,7,0.00
2013-3-12,59,48,43,51,41,32,99,77,57,0.00,40.00,4,1,10,0.00
2013-3-13,68,52,42,47,42,32,99,72,40,0.00,40.00,3,1,11,0.00
2013-3-14,65,50,46,49,42,33,99,75,42,0.00,40.00,5,2,15,0.00
2013-3-15,62,51,45,47,42,30,99,75,46,0.00,40.00,5,1,10,0.00
2013-3-16,46,41,34,43,36,22,99,82,58,0.00,40.00,7,3,21,0.39
2013-3-17,45,37,30,38,31,18,99,79,58,0.00,40.00,5,1,20,0.41
2013-3-18,54,40,32,38,32,28,96,77,42,0.00,40.00,6,2,10,0.04
2013-3-19,54,44,37,43,34,25,98,68,43,0.00,40.00,9,3,17,0.57
2013-3-20,47,40,32,45,35,24,99,82,54,0.00,40.00,14,6,35,1.43
2013-3-21,44,34,31,41,29,18,98,80,57,0.00,40.00,6,3,15,0.16
2013-3-22,45,35,30,34,28,20,95,76,56,0.00,40.00,4,1,11,0.06
2013-3-23,49,36,30,35,29,23,95,76,49,0.00,40.00,4,1,9,0.02
2013-3-24,55,41,33,40,33,26,89,75,55,0.00,40.00,4,2,9,0.02
2013-3-25,53,46,37,43,32,-3,85,63,14,0.00,40.00,5,2,9,0.00
2013-3-26,49,44,38,46,37,21,98,79,43,0.00,40.00,4,0,8,0.08
2013-3-27,63,48,40,45,39,28,94,75,47,0.00,40.00,1,0,10,0.01
2013-3-28,61,54,46,47,43,41,95,69,49,0.00,40.00,4,1,15,0.08
2013-3-29,65,53,45,47,44,39,95,74,48,0.00,40.00,5,1,9,0.00
2013-3-30,71,58,47,49,42,-100,83,59,44,0.00,40.00,6,5,13,0.00
2013-3-31,75,56,47,48,43,30,95,65,37,0.00,40.00,7,3,14,0.00
2013-4-1,58,50,46,50,42,31,97,78,53,0.00,40.00,1,0,9,0.00
2013-4-2,65,53,43,46,38,28,80,58,46,0.00,40.00,5,1,11,0.00
2013-4-3,67,55,46,45,43,37,93,65,45,0.00,40.00,3,1,7,0.00
2013-4-4,56,51,46,45,41,30,88,68,47,0.00,40.00,12,5,31,0.42
2013-4-5,50,46,44,48,36,28,97,70,50,0.00,40.00,11,7,23,0.92
2013-4-6,47,44,40,46,36,23,96,77,50,0.00,40.00,9,6,26,0.71
2013-4-7,52,40,34,40,35,17,94,82,50,0.00,40.00,16,6,43,0.25
2013-4-8,50,42,33,42,36,17,98,81,50,0.00,40.00,1,0,8,0.15
2013-4-9,58,48,36,44,37,19,92,67,49,0.00,40.00,4,1,9,0.01
2013-4-10,60,46,39,52,40,27,95,82,50,0.00,40.00,7,4,20,0.09
2013-4-11,54,43,34,40,37,33,96,79,56,0.00,40.00,3,1,13,0.04
2013-4-12,57,44,35,43,37,22,96,78,48,0.00,40.00,6,3,16,0.04
2013-4-13,50,40,32,39,33,16,95,77,47,0.00,40.00,5,2,16,0.19
2013-4-14,50,38,32,42,33,14,97,83,47,0.00,40.00,6,2,13,0.07
2013-4-15,46,39,33,40,32,15,95,79,47,0.00,40.00,2,1,11,0.62
2013-4-16,56,43,34,43,34,16,95,70,48,0.00,40.00,5,1,16,0.32
2013-4-17,57,44,34,43,35,17,98,72,40,0.00,40.00,2,0,10,0.06
2013-4-18,60,47,37,48,40,31,93,78,60,0.00,40.00,4,1,8,0.00
2013-4-19,55,47,42,52,39,25,97,76,48,0.00,40.00,8,4,17,0.61
2013-4-20,59,48,41,48,41,23,98,79,48,0.00,40.00,5,1,10,0.01
2013-4-21,56,47,39,48,39,20,97,75,47,0.00,40.00,5,2,13,0.06
2013-4-22,63,51,38,48,36,21,92,57,40,0.00,40.00,6,4,14,0.02
2013-4-23,66,55,41,33,27,11,46,34,23,0.00,40.00,5,3,17,0.00
2013-4-24,72,60,45,39,31,15,46,33,26,0.00,40.00,7,4,19,0.00
2013-4-25,75,61,49,42,37,30,51,41,29,0.00,40.00,5,2,15,0.00
2013-4-26,76,63,51,50,41,30,65,46,21,0.00,40.00,4,2,11,0.00
2013-4-27,79,62,50,45,36,28,51,40,19,0.00,40.00,4,2,12,0.00
2013-4-28,67,51,42,47,40,32,97,69,41,0.00,40.00,5,1,14,0.00
2013-4-29,59,49,42,46,41,26,92,75,47,0.00,40.00,6,3,15,0.09
2013-4-30,54,44,32,33,31,29,91,61,43,0.00,40.00,5,2,17,0.07
2013-5-1,64,48,34,41,34,29,90,63,41,0.00,40.00,6,4,15,0.00
2013-5-2,76,63,52,44,34,20,40,33,28,0.00,40.00,6,4,16,0.00
2013-5-3,70,60,48,45,39,32,63,46,39,0.00,40.00,8,4,19,0.00
2013-5-4,78,66,53,42,35,27,62,35,19,0.00,40.00,7,4,20,0.00
2013-5-5,84,67,52,43,36,29,72,33,20,0.00,40.00,5,4,16,0.00
2013-5-6,76,61,48,52,47,42,85,61,38,0.00,40.00,7,4,14,0.00
2013-5-7,76,59,47,54,47,42,90,68,38,0.00,40.00,8,3,15,0.00
2013-5-8,70,56,43,53,47,25,95,75,45,0.00,40.00,5,2,12,0.00
2013-5-9,76,61,50,57,50,38,95,68,36,0.00,40.00,4,2,12,0.00
2013-5-10,80,65,56,57,47,-100,79,57,31,0.00,40.00,4,1,10,0.00
2013-5-11,82,66,54,61,52,-100,90,65,34,0.00,40.00,6,3,11,0.00
2013-5-12,79,62,54,59,53,37,96,73,45,0.00,40.00,5,1,11,0.00
2013-5-13,66,54,47,52,43,3,97,73,8,0.00,40.00,6,2,21,0.02
2013-5-14,66,53,41,47,40,13,97,66,28,0.00,40.00,3,2,13,0.01
2013-5-15,56,49,44,52,43,34,96,82,61,0.00,40.00,4,1,8,0.20
2013-5-16,54,45,45,52,25,-100,97,78,34,0.00,40.00,2,0,10,0.19
2013-5-17,57,49,42,51,35,-100,94,69,44,0.00,40.00,2,0,11,0.01
2013-5-18,52,47,43,51,42,23,98,85,44,0.00,40.00,4,2,13,0.11
2013-5-19,63,51,46,53,40,26,95,68,45,0.00,40.00,5,2,12,0.12
2013-5-20,72,55,43,52,45,40,92,71,38,0.00,40.00,5,2,12,0.01
2013-5-21,51,42,35,47,38,16,99,89,44,0.00,40.00,6,2,18,0.96
2013-5-22,40,36,32,35,29,14,85,76,44,0.00,40.00,9,8,21,0.67
2013-5-23,51,44,38,42,32,16,92,68,24,0.00,40.00,7,5,17,0.27
2013-5-24,60,49,39,49,42,20,98,78,46,0.00,40.00,6,3,15,0.17
2013-5-25,68,54,39,49,44,20,99,71,36,0.00,40.00,4,1,11,0.09
2013-5-26,63,52,44,54,46,26,98,80,46,0.00,40.00,5,3,19,0.44
2013-5-27,57,49,44,56,45,27,99,88,47,0.00,40.00,9,5,22,0.94
2013-5-28,67,53,45,56,46,27,99,79,47,0.00,40.00,7,3,14,0.13
2013-5-29,63,49,42,55,45,27,97,85,47,0.00,40.00,12,4,26,0.53
2013-5-30,64,49,41,49,43,24,98,81,46,0.00,40.00,3,1,11,0.01
2013-5-31,67,54,42,49,45,40,97,75,51,0.00,40.00,4,2,13,0.01
2013-6-1,74,61,48,53,48,42,87,64,42,0.00,40.00,3,1,11,0.00
2013-6-2,69,56,48,52,49,46,99,81,47,0.00,40.00,3,2,14,0.00
2013-6-3,72,61,46,56,49,27,97,68,46,0.00,40.00,5,3,17,0.00
2013-6-4,77,63,49,55,50,45,96,65,35,0.00,40.00,5,3,15,0.00
2013-6-5,81,69,56,59,53,49,79,59,35,0.00,40.00,4,2,13,0.00
2013-6-6,79,67,54,62,57,50,96,72,46,0.00,40.00,5,2,14,0.00
2013-6-7,79,66,54,59,49,37,85,56,25,0.00,40.00,5,2,13,0.00
2013-6-8,77,62,51,56,47,34,98,64,24,0.00,40.00,6,3,14,0.00
2013-6-9,72,60,48,53,48,45,92,68,45,0.00,40.00,6,4,17,0.00
2013-6-10,69,55,43,47,44,40,97,71,39,0.00,40.00,5,2,15,0.00
2013-6-11,61,51,44,47,44,40,92,78,58,0.00,40.00,2,0,11,0.00
2013-6-12,62,50,43,48,44,41,97,81,56,0.00,40.00,2,0,11,0.00
2013-6-13,57,48,43,54,46,27,97,92,51,0.00,40.00,5,1,12,0.23
2013-6-14,69,60,44,53,49,23,91,70,42,0.00,40.00,5,2,14,0.03
2013-6-15,79,62,49,58,52,46,95,72,38,0.00,40.00,4,1,10,0.00
2013-6-16,74,62,47,56,51,27,98,70,46,0.00,40.00,5,1,11,0.00
2013-6-17,75,57,48,53,49,45,96,77,40,0.00,40.00,6,2,21,0.00
2013-6-18,69,54,46,52,47,42,97,78,48,0.00,40.00,5,2,22,0.01
2013-6-19,62,51,45,56,47,26,98,87,44,0.00,40.00,4,2,11,0.12
2013-6-20,58,50,46,55,48,40,98,90,75,0.00,40.00,4,1,9,0.23
2013-6-21,70,68,63,50,49,48,58,50,47,0.00,40.00,1,0,9,0.03
2013-6-22,80,72,51,54,49,44,86,46,33,0.00,40.00,4,1,13,0.00
2013-6-23,69,60,53,61,55,41,97,84,54,0.00,40.00,6,0,13,0.24
2013-6-24,63,57,52,56,52,45,97,85,74,0.00,40.00,6,2,13,0.24
2013-6-25,65,58,53,62,55,47,97,90,77,0.00,40.00,4,2,18,1.20
2013-6-26,68,63,57,61,57,51,95,82,76,0.00,40.00,3,1,8,0.65
2013-6-27,82,67,57,66,58,51,93,75,54,0.00,40.00,3,1,10,0.02
2013-6-28,89,73,59,69,61,52,97,69,35,0.00,40.00,4,2,11,0.00
2013-6-29,85,72,59,64,57,51,76,59,42,0.00,40.00,2,1,11,0.00
2013-6-30,91,77,65,67,62,55,81,60,40,0.00,40.00,5,2,10,0.00
2013-7-1,88,76,62,69,65,59,92,71,52,0.00,40.00,3,1,11,0.00
2013-7-2,88,75,62,71,64,58,96,72,50,0.00,40.00,5,3,13,0.00
2013-7-3,84,70,57,59,52,40,85,58,25,0.00,40.00,7,3,13,0.00
2013-7-4,75,63,50,53,50,45,92,65,40,0.00,40.00,6,4,17,0.00
2013-7-5,72,60,47,53,50,46,95,72,47,0.00,40.00,5,2,19,0.00
2013-7-6,73,58,49,56,52,48,97,82,52,0.00,40.00,5,2,17,0.00
2013-7-7,79,65,53,60,56,51,97,74,48,0.00,40.00,4,2,12,0.00
2013-7-8,80,62,52,59,53,44,97,75,41,0.00,40.00,5,3,13,0.00
2013-7-9,87,72,56,62,55,49,90,58,31,0.00,40.00,5,2,12,0.00
2013-7-10,83,70,58,60,51,-100,84,57,37,0.00,40.00,5,3,16,0.00
2013-7-11,74,60,46,50,47,42,92,64,39,0.00,40.00,7,3,17,0.00
2013-7-12,76,61,47,53,48,45,95,65,35,0.00,40.00,5,3,15,0.00
2013-7-13,77,62,47,54,46,40,96,61,31,0.00,40.00,5,4,17,0.00
2013-7-14,84,68,54,54,48,40,76,50,30,0.00,40.00,5,3,15,0.00
2013-7-15,82,67,53,53,47,40,67,50,35,0.00,40.00,5,4,14,0.00
2013-7-16,81,70,54,61,57,51,95,65,48,0.00,40.00,8,3,14,0.00
2013-7-17,80,67,51,57,54,50,98,67,43,0.00,40.00,8,2,14,0.01
2013-7-18,83,70,53,59,51,42,97,55,28,0.00,40.00,5,2,13,0.00
2013-7-19,79,67,53,59,55,42,96,67,42,0.00,40.00,5,3,15,0.00
2013-7-20,80,65,54,60,54,-100,97,71,42,0.00,40.00,5,3,23,0.00
2013-7-21,83,69,54,58,54,50,94,64,37,0.00,40.00,5,3,14,0.00
2013-7-22,85,70,55,62,54,40,97,60,30,0.00,40.00,5,3,13,0.00
2013-7-23,90,73,59,58,49,44,69,46,21,0.00,40.00,5,2,13,0.00
2013-7-24,91,77,63,55,48,37,63,39,15,0.00,40.00,4,2,12,0.00
2013-7-25,89,76,62,54,45,36,51,36,19,0.00,40.00,4,2,15,0.00
2013-7-26,88,72,59,54,48,39,71,47,20,0.00,40.00,5,3,16,0.00
2013-7-27,80,66,53,49,43,37,68,46,25,0.00,40.00,5,3,17,0.00
2013-7-28,78,62,48,52,49,44,92,65,35,0.00,40.00,5,3,12,0.00
2013-7-29,79,60,48,56,51,35,97,73,42,0.00,40.00,6,3,12,0.00
2013-7-30,82,65,50,57,53,49,98,69,37,0.00,40.00,5,1,11,0.00
2013-7-31,75,59,52,62,56,51,99,88,63,0.00,40.00,5,1,11,0.00
2013-8-1,57,56,54,56,53,48,98,91,80,0.00,40.00,2,0,8,0.06
2013-8-2,75,65,55,56,54,51,91,68,50,0.00,40.00,3,1,12,0.00
2013-8-3,80,65,52,59,54,50,97,72,39,0.00,40.00,5,3,16,0.00
2013-8-4,88,71,58,62,56,52,93,63,32,0.00,40.00,5,2,11,0.00
2013-8-5,88,74,60,62,56,52,86,57,32,0.00,40.00,3,1,9,0.00
2013-8-6,90,76,62,59,50,36,73,46,20,0.00,40.00,3,1,11,0.00
2013-8-7,73,63,55,56,50,39,94,63,33,0.00,40.00,6,1,13,0.00
2013-8-8,79,67,53,58,54,41,97,66,45,0.00,40.00,4,2,12,0.00
2013-8-9,82,66,59,64,58,55,90,77,41,0.00,40.00,3,1,12,0.03
2013-8-10,76,60,55,59,45,-100,97,82,58,0.00,40.00,7,3,10,0.02
2013-8-11,76,63,54,54,-15,-100,96,48,68,0.00,40.00,4,1,9,0.01
2013-8-12,73,65,56,60,56,52,88,75,62,0.00,40.00,3,1,10,0.01
2013-8-13,84,66,52,61,51,-100,95,63,35,0.00,40.00,5,2,11,0.01
2013-8-14,86,66,58,56,52,48,81,62,29,0.00,40.00,5,2,12,0.00
2013-8-15,84,64,58,64,53,-100,97,76,48,0.00,40.00,2,0,9,0.00
2013-8-16,84,66,61,66,55,-100,99,74,43,0.00,40.00,1,0,9,0.01
2013-8-17,83,66,55,59,53,-100,87,66,44,0.00,40.00,3,1,13,0.01
2013-8-18,83,69,55,61,55,46,98,66,41,0.00,40.00,5,3,12,0.00
2013-8-19,86,67,58,60,50,-100,95,64,33,0.00,40.00,5,2,15,0.00
2013-8-20,79,64,52,57,48,35,98,61,30,0.00,40.00,6,4,16,0.00
2013-8-21,85,68,54,56,50,45,76,56,34,0.00,40.00,6,3,18,0.00
2013-8-22,79,68,63,61,56,50,82,65,51,0.00,40.00,6,1,12,0.00
2013-8-23,76,64,56,59,56,46,98,76,54,0.00,40.00,4,1,9,0.02
2013-8-24,73,62,53,57,51,-100,89,72,52,0.00,40.00,3,0,9,0.00
2013-8-25,66,58,52,62,54,49,94,87,79,0.00,40.00,5,2,12,0.21
2013-8-26,79,68,57,56,52,49,77,58,40,0.00,40.00,7,3,17,0.04
2013-8-27,76,61,56,57,53,50,86,77,52,0.00,40.00,3,1,8,0.01
2013-8-28,80,72,62,60,58,57,89,64,46,0.00,40.00,2,1,9,0.00
2013-8-29,75,64,58,65,60,51,99,88,71,0.00,40.00,5,2,15,0.08
2013-8-30,81,67,59,61,57,53,99,74,48,0.00,40.00,4,1,11,0.04
2013-8-31,86,70,57,64,56,-100,93,65,39,0.00,40.00,4,1,12,0.01
2013-9-1,84,64,54,57,54,51,98,73,34,0.00,40.00,5,3,19,0.00
2013-9-2,76,64,58,60,56,52,97,76,46,0.00,40.00,3,0,12,0.00
2013-9-3,79,64,55,56,52,48,92,66,40,0.00,40.00,3,0,10,0.00
2013-9-4,70,60,54,58,55,53,98,84,62,0.00,40.00,3,0,7,0.00
2013-9-5,61,55,53,58,52,46,98,89,71,0.00,40.00,6,1,15,1.36
2013-9-6,68,58,53,62,52,45,99,81,68,0.00,40.00,6,3,12,1.24
2013-9-7,74,55,50,50,18,-100,89,62,69,0.00,40.00,4,3,11,0.01
2013-9-8,77,67,57,62,57,40,94,71,51,0.00,40.00,5,3,16,0.00
2013-9-9,82,69,60,64,59,55,91,72,44,0.00,40.00,5,2,18,0.00
2013-9-10,85,72,59,66,60,42,92,68,47,0.00,40.00,6,4,12,0.00
2013-9-11,88,78,61,66,59,44,86,54,37,0.00,40.00,5,1,10,0.00
2013-9-12,79,65,54,65,57,41,91,77,59,0.00,40.00,5,2,10,0.00
2013-9-13,76,65,56,66,60,52,99,85,70,0.00,40.00,6,2,12,0.00
2013-9-14,72,62,58,60,52,-100,98,75,47,0.00,40.00,5,2,11,0.00
2013-9-15,60,57,54,60,54,46,99,89,66,0.00,40.00,3,1,8,0.03
2013-9-16,68,61,54,57,55,48,99,81,63,0.00,40.00,3,1,9,0.01
2013-9-17,62,54,49,54,51,45,99,91,71,0.00,40.00,4,1,12,1.13
2013-9-18,54,51,50,48,46,44,89,83,78,0.00,40.00,3,1,8,1.13
2013-9-19,76,62,51,59,49,44,79,65,46,0.00,40.00,4,1,7,0.00
2013-9-20,73,57,51,54,49,42,99,77,52,0.00,40.00,7,4,16,0.05
2013-9-21,65,52,50,58,48,-100,97,87,70,0.00,40.00,4,1,9,0.57
2013-9-22,53,50,48,52,46,43,99,87,78,0.00,40.00,10,6,27,0.60
2013-9-23,54,51,49,54,49,42,99,92,74,0.00,40.00,6,4,12,0.12
2013-9-24,54,48,45,50,45,39,99,90,71,0.00,40.00,5,3,11,0.73
2013-9-25,53,46,42,50,43,37,99,90,83,0.00,40.00,3,1,11,0.26
2013-9-26,63,49,43,52,45,38,99,86,57,0.00,40.00,1,0,11,0.01
2013-9-27,50,46,43,50,42,33,99,87,68,0.00,40.00,10,4,21,0.08
2013-9-28,58,50,54,49,30,-100,71,60,65,0.00,40.00,12,11,37,1.40
2013-9-30,51,48,45,39,38,36,75,68,60,0.00,40.00,6,4,15,1.29
2013-10-1,50,45,42,45,42,40,99,91,84,0.00,40.00,0,0,5,0.32
2013-10-2,52,44,38,49,40,31,99,89,69,0.00,40.00,4,1,9,0.08
2013-10-3,57,45,38,48,38,29,99,78,68,0.00,40.00,3,1,9,0.01
2013-10-4,63,49,40,49,43,36,99,82,49,0.00,40.00,5,3,11,0.01
2013-10-5,72,57,49,56,46,33,76,65,34,0.00,40.00,6,3,9,0.00
2013-10-6,77,63,50,48,40,35,71,46,27,0.00,40.00,7,4,17,0.00
2013-10-7,59,48,42,52,46,38,99,92,64,0.00,40.00,5,2,13,0.18
2013-10-8,44,43,41,43,41,36,97,93,80,0.00,40.00,3,0,11,0.38
2013-10-9,46,43,39,36,31,26,80,64,54,0.00,40.00,4,1,11,0.36
2013-10-10,48,45,42,40,35,26,74,67,53,0.00,40.00,2,0,6,0.00
2013-10-11,55,48,42,45,42,35,96,82,62,0.00,40.00,3,0,8,0.00
2013-10-12,52,45,41,47,40,-100,96,85,55,0.00,40.00,1,0,7,0.01
2013-10-13,45,42,38,43,32,24,96,68,53,0.00,40.00,4,2,11,0.01
2013-10-14,60,49,42,50,43,34,96,80,54,0.00,40.00,5,4,14,0.01
2013-10-15,63,52,45,45,36,25,67,55,38,0.00,40.00,6,4,12,0.00
2013-10-16,62,53,46,49,43,35,85,70,57,0.00,40.00,4,2,8,0.00
2013-10-17,62,52,46,52,46,41,97,80,64,0.00,40.00,6,3,12,0.00
2013-10-18,66,55,49,54,43,35,74,64,49,0.00,40.00,7,4,12,0.00
2013-10-19,71,57,51,56,47,-100,90,73,42,0.00,40.00,4,2,7,0.00
2013-10-20,66,54,49,55,49,45,91,82,60,0.00,40.00,6,4,10,0.00
2013-10-21,68,61,52,52,46,39,86,59,45,0.00,40.00,6,4,11,0.00
2013-10-22,73,64,59,56,51,41,76,64,52,0.00,40.00,5,3,7,0.00
2013-10-23,69,60,53,57,51,46,92,73,59,0.00,40.00,5,2,10,0.00
2013-10-24,66,57,50,56,51,45,95,80,66,0.00,40.00,4,2,8,0.00
2013-10-25,62,51,43,53,46,34,99,86,60,0.00,40.00,5,2,8,0.00
2013-10-26,53,44,40,48,39,-100,99,85,55,0.00,40.00,8,3,14,0.01
2013-10-27,47,43,40,44,41,32,99,92,64,0.00,40.00,6,4,18,0.18
2013-10-28,55,41,39,40,14,-100,95,76,14,0.00,40.00,5,2,11,0.01
2013-10-29,53,53,53,-100,-100,-100,0,0,100,0.00,40.00,1,1,6,0.00
2013-10-31,51,50,49,49,44,36,93,80,57,0.00,40.00,5,3,11,0.06
2013-11-1,61,50,43,53,48,41,99,92,72,0.00,40.00,7,2,12,0.04
2013-11-2,50,44,37,49,42,-100,99,96,93,0.00,40.00,11,4,32,0.70
2013-11-3,43,38,36,43,38,34,99,96,92,0.00,40.00,4,2,14,0.20
2013-11-4,42,40,37,42,39,35,99,95,94,0.00,40.00,8,5,15,0.16
2013-11-5,49,45,41,47,43,39,95,92,89,0.00,40.00,8,6,15,1.16
2013-11-6,58,52,48,58,49,43,100,92,81,0.00,40.00,5,3,10,0.20
2013-11-7,52,46,40,51,44,32,99,92,69,0.00,40.00,9,5,33,0.65
2013-11-8,49,42,39,48,41,37,99,95,90,0.00,40.00,5,3,13,0.08
2013-11-9,53,42,37,46,37,-100,99,85,63,0.00,40.00,3,1,7,0.01
2013-11-10,55,51,49,49,48,45,98,89,78,0.00,40.00,4,1,8,0.00
2013-11-11,63,50,46,48,44,39,99,84,53,0.00,40.00,5,1,7,0.00
2013-11-12,52,48,45,52,46,39,99,92,70,0.00,40.00,7,3,15,0.37
2013-11-13,50,45,42,43,40,38,91,82,75,0.00,40.00,5,1,11,0.11
2013-11-14,47,43,39,40,37,32,90,82,59,0.00,40.00,2,0,8,0.01
2013-11-15,42,40,38,41,36,31,98,86,70,0.00,40.00,5,2,10,0.11
2013-11-16,45,38,38,43,33,-100,98,89,84,0.00,40.00,4,2,14,0.38
2013-11-17,46,43,39,45,41,33,99,94,76,0.00,40.00,7,3,13,0.06
2013-11-18,49,44,39,44,41,33,98,88,78,0.00,40.00,7,5,13,0.15
2013-11-20,36,32,28,35,30,19,99,91,66,0.00,40.00,7,4,14,0.05
2013-11-21,38,32,27,26,18,10,91,57,35,0.00,40.00,8,5,16,0.01
2013-11-24,52,50,49,30,28,28,44,44,43,0.00,40.00,2,0,5,0.00
2013-11-25,56,47,43,37,34,29,69,59,47,0.00,40.00,4,1,5,0.00
2013-11-27,59,49,45,43,34,27,76,58,47,0.00,40.00,5,4,8,0.00
2013-11-28,56,46,42,41,37,32,78,70,55,0.00,40.00,6,2,11,0.00
2013-11-29,51,44,40,41,39,37,91,81,63,0.00,40.00,4,2,7,0.00
2013-11-30,52,44,41,44,38,-100,96,86,74,0.00,40.00,7,5,12,0.00
2013-12-1,46,44,42,43,39,34,94,84,70,0.00,40.00,9,8,16,0.02
2013-12-2,40,34,31,37,32,29,99,95,84,0.00,40.00,5,2,16,1.83
2013-12-3,36,30,22,36,30,20,99,98,90,0.00,40.00,4,1,12,0.07
2013-12-4,34,24,20,22,18,14,92,77,55,0.00,40.00,4,3,12,0.06
2013-12-5,33,23,19,23,18,12,93,79,61,0.00,40.00,4,1,9,0.01
2013-12-6,28,24,19,27,22,18,99,93,74,0.00,40.00,5,3,12,0.00
2013-12-7,26,17,13,18,12,-100,95,86,65,0.00,40.00,5,3,12,0.11
2013-12-8,32,21,16,20,14,9,81,74,42,0.00,40.00,2,1,8,0.05
2013-12-9,40,32,28,24,23,18,81,72,42,0.00,40.00,0,0,7,0.05
2013-12-10,37,33,30,28,27,26,87,78,67,0.00,40.00,5,3,9,0.00
2013-12-11,46,46,46,31,31,31,55,55,55,0.00,40.00,3,3,6,0.00
2013-12-12,47,38,37,39,35,29,99,88,51,0.00,40.00,8,6,16,0.24
2013-12-13,49,41,38,49,40,37,99,95,90,0.00,40.00,7,5,16,0.23
2013-12-14,48,40,36,41,29,-100,94,77,75,0.00,40.00,8,6,12,0.01
2013-12-15,50,43,39,43,40,39,99,92,78,0.00,40.00,5,3,8,0.00
2013-12-16,48,40,35,47,36,29,99,86,57,0.00,40.00,6,4,11,0.00
2013-12-17,55,45,40,37,32,26,78,59,40,0.00,40.00,6,2,8,0.00
2013-12-18,42,37,31,41,36,30,99,94,64,0.00,40.00,5,1,21,0.05
2013-12-19,37,30,26,34,29,26,99,98,88,0.00,40.00,4,2,16,0.05
2013-12-20,39,32,27,37,31,27,99,97,78,0.00,40.00,12,6,21,0.55
2013-12-21,46,42,38,45,35,-100,99,81,73,0.00,40.00,7,2,13,0.15
2013-12-22,46,45,42,39,35,30,75,67,55,0.00,40.00,5,2,9,0.10
2013-12-24,37,34,32,35,29,20,99,82,55,0.00,40.00,6,2,10,0.08
2013-12-25,44,35,32,35,32,24,99,89,57,0.00,40.00,7,2,10,0.01
2013-12-26,49,45,43,38,27,22,68,49,39,0.00,40.00,5,2,7,0.00
2013-12-27,47,43,39,37,33,29,94,67,55,0.00,40.00,7,1,11,0.00
2013-12-28,42,34,32,38,32,-100,99,94,55,0.00,40.00,6,3,13,0.00
2013-12-29,45,35,30,33,28,23,99,76,48,0.00,40.00,5,2,10,0.00
2013-12-30,50,46,42,37,32,25,75,60,41,0.00,40.00,7,3,14,0.00
2013-12-31,51,46,41,36,30,22,81,55,40,0.00,40.00,5,1,9,0.00
2014-1-1,48,44,41,40,35,25,82,69,51,0.00,40.00,5,2,9,0.00
2014-1-2,57,48,44,40,37,35,84,67,50,0.00,40.00,7,4,14,0.00